Weather History for Monroe, MI

Change the Weather History Date:

Tuesday, November 1, 2011

  Actual Average Record
Temperature  
Mean Temperature 45 °F -  
Max Temperature 60 °F 57 °F 81 °F (1950)
Min Temperature 30 °F 41 °F 25 °F (1934)
Degree Days  
Heating Degree Days 20    
Moisture  
Dew Point 36 °F    
Average Humidity 78    
Maximum Humidity 100    
Minimum Humidity 36    
Precipitation  
Precipitation 0.00 in - - ()
Sea Level Pressure  
Sea Level Pressure 30.20 in    
Wind  
Wind Speed 2 mph (South)    
Max Wind Speed 12 mph    
Max Gust Speed 17 mph    
Visibility 6 miles    
Events Fog    
Averages and records for this station are not official NWS values.
T = Trace of Precipitation, MM = Missing Value Source: NWS Daily Summary

Daily Weather History Graph

Daily Weather History Graph

Search for Another Location

Airport:

Trip Planner

Search our weather history database for the weather conditions in past years. The results will help you decide how hot, cold, wet, or windy it might be!

Date:

Astronomy

Nov. 01, 2011 Rise Set
Actual Time 8:05 AM EDT 6:28 PM EDT
Civil Twilight 7:36 AM EDT 6:57 PM EDT
Nautical Twilight 7:03 AM EDT 7:29 PM EDT
Astronomical Twilight 6:31 AM EDT 8:02 PM EDT
Moon 1:53 PM EDT (11/1) No Moon Set
Length of Visible Light 11h 20m
Length of Day
10h 22m
Waxing Crescent, 39% of the Moon is Illuminated
Nov 1
Waxing Crescent
Nov 2
First Quarter
Nov 10
Full
Nov 18
Last Quarter
Nov 25
New

Hourly Weather History & Observations

Time (EDT) Temp. Windchill Dew Point Humidity Pressure Visibility Wind Dir Wind Speed Gust Speed Precip Events Conditions
12:11 AM 37.4 °F - 37.4 °F 100% 30.16 in 0.2 mi Calm Calm - N/A Fog Fog
12:31 AM 37.4 °F - 37.4 °F 100% 30.17 in 0.2 mi Calm Calm - N/A Fog Fog
12:52 AM 37.4 °F - 37.4 °F 100% 30.17 in 0.8 mi Calm Calm - N/A   Mostly Cloudy
1:12 AM 35.6 °F - 35.6 °F 100% 30.17 in 0.2 mi Calm Calm - N/A Fog Fog
1:32 AM 35.6 °F - 35.6 °F 100% 30.18 in 0.2 mi Calm Calm - N/A Fog Fog
1:52 AM 35.6 °F - 35.6 °F 100% 30.18 in 0.2 mi Calm Calm - N/A Fog Fog
2:15 AM 33.8 °F - 33.8 °F 100% 30.19 in 0.2 mi Calm Calm - N/A Fog Fog
2:35 AM 33.8 °F - 33.8 °F 100% 30.19 in 0.2 mi Calm Calm - N/A Fog Fog
2:52 AM 33.8 °F - 33.8 °F 100% 30.19 in 0.2 mi Calm Calm - N/A Fog Fog
3:12 AM 35.6 °F - 35.6 °F 100% 30.19 in 0.2 mi Calm Calm - N/A Fog Fog
3:32 AM 33.8 °F - 33.8 °F 100% 30.19 in 1.0 mi Calm Calm - N/A   Mostly Cloudy
3:53 AM 32.0 °F - 32.0 °F 100% 30.20 in 2.0 mi Calm Calm - N/A   Clear
4:13 AM 33.8 °F - 33.8 °F 100% 30.20 in 1.2 mi Calm Calm - N/A   Mist
4:33 AM 32.0 °F - 32.0 °F 100% 30.20 in 0.8 mi Calm Calm - N/A   Mist
4:53 AM 32.0 °F - 32.0 °F 100% 30.20 in 0.5 mi Calm Calm - N/A Fog Fog
5:13 AM 32.0 °F - 32.0 °F 100% 30.21 in 0.5 mi Calm Calm - N/A Fog Fog
5:34 AM 32.0 °F - 32.0 °F 100% 30.21 in 4.0 mi Calm Calm - N/A   Mist
5:54 AM 30.2 °F - 30.2 °F 100% 30.21 in 1.2 mi Calm Calm - N/A   Mostly Cloudy
6:14 AM 30.2 °F - 30.2 °F 100% 30.21 in 3.0 mi Calm Calm - N/A   Scattered Clouds
6:34 AM 30.2 °F - 30.2 °F 100% 30.22 in 5.0 mi Calm Calm - N/A   Clear
6:54 AM 30.2 °F - 30.2 °F 100% 30.22 in 7.0 mi Calm Calm - N/A   Mostly Cloudy
7:14 AM 30.2 °F - 30.2 °F 100% 30.22 in 2.5 mi Calm Calm - N/A   Scattered Clouds
7:35 AM 30.2 °F - 30.2 °F 100% 30.22 in 4.0 mi Calm Calm - N/A   Clear
8:15 AM 30.2 °F - 30.2 °F 100% 30.22 in 0.2 mi Calm Calm - N/A Fog Light Freezing Fog
8:35 AM 30.2 °F - 30.2 °F 100% 30.23 in 0.8 mi Calm Calm - N/A   Mostly Cloudy
9:11 AM 33.8 °F - 33.8 °F 100% 30.24 in 2.0 mi Calm Calm - N/A   Clear
9:31 AM 35.6 °F - 35.6 °F 100% 30.24 in 1.5 mi Calm Calm - N/A   Mist
9:51 AM 39.2 °F - 39.2 °F 100% 30.24 in 4.0 mi Calm Calm - N/A   Clear
10:11 AM 42.8 °F 40.1 °F 42.8 °F 100% 30.24 in 7.0 mi South 4.6 mph - N/A   Clear
10:32 AM 44.6 °F 42.2 °F 44.6 °F 100% 30.24 in 7.0 mi South 4.6 mph - N/A   Clear
10:52 AM 46.4 °F - 46.4 °F 100% 30.24 in 10.0 mi Calm Calm - N/A   Clear
11:12 AM 48.2 °F - 44.6 °F 87% 30.24 in 10.0 mi South 3.5 mph - N/A   Clear
11:32 AM 51.8 °F - 42.8 °F 71% 30.24 in 10.0 mi South 4.6 mph - N/A   Clear
11:53 AM 53.6 °F - 41.0 °F 62% 30.23 in 10.0 mi South 4.6 mph - N/A   Clear
12:13 PM 53.6 °F - 41.0 °F 62% 30.24 in 10.0 mi South 4.6 mph - N/A   Clear
12:33 PM 55.4 °F - 42.8 °F 63% 30.24 in 10.0 mi South 5.8 mph - N/A   Clear
12:53 PM 55.4 °F - 41.0 °F 58% 30.23 in 10.0 mi South 9.2 mph - N/A   Clear
1:13 PM 55.4 °F - 39.2 °F 54% 30.21 in 10.0 mi South 6.9 mph - N/A   Clear
1:33 PM 55.4 °F - 42.8 °F 63% 30.21 in 10.0 mi SSE 8.1 mph - N/A   Clear
1:54 PM 55.4 °F - 42.8 °F 63% 30.20 in 10.0 mi South 8.1 mph - N/A   Clear
2:14 PM 57.2 °F - 41.0 °F 55% 30.19 in 10.0 mi SSE 6.9 mph - N/A   Clear
2:34 PM 57.2 °F - 41.0 °F 55% 30.19 in 10.0 mi SSE 9.2 mph - N/A   Clear
2:54 PM 57.2 °F - 41.0 °F 55% 30.18 in 10.0 mi SSE 8.1 mph - N/A   Clear
3:14 PM 60.8 °F - 37.4 °F 42% 30.18 in 10.0 mi SSW 9.2 mph - N/A   Clear
3:34 PM 60.8 °F - 37.4 °F 42% 30.17 in 10.0 mi South 9.2 mph - N/A   Clear
3:54 PM 60.8 °F - 35.6 °F 39% 30.17 in 10.0 mi South 9.2 mph - N/A   Clear
4:14 PM 60.8 °F - 33.8 °F 36% 30.17 in 10.0 mi SSW 11.5 mph 17.3 mph N/A   Clear
4:35 PM 60.8 °F - 35.6 °F 39% 30.17 in 10.0 mi SSW 8.1 mph - N/A   Clear
4:55 PM 60.8 °F - 33.8 °F 36% 30.17 in 10.0 mi SSW 9.2 mph 16.1 mph N/A   Clear
5:15 PM 59.0 °F - 35.6 °F 42% 30.17 in 10.0 mi SSW 6.9 mph - N/A   Clear
5:35 PM 59.0 °F - 33.8 °F 39% 30.17 in 10.0 mi South 6.9 mph - N/A   Clear
5:55 PM 57.2 °F - 35.6 °F 44% 30.17 in 10.0 mi South 5.8 mph - N/A   Clear
6:10 PM 55.4 °F - 35.6 °F 47% 30.17 in 10.0 mi South 5.8 mph - N/A   Clear
6:30 PM 53.6 °F - 35.6 °F 51% 30.17 in 10.0 mi South 4.6 mph - N/A   Clear
6:50 PM 51.8 °F - 35.6 °F 54% 30.17 in 10.0 mi Calm Calm - N/A   Clear
7:11 PM 51.8 °F - 35.6 °F 54% 30.18 in 10.0 mi Calm Calm - N/A   Clear
7:31 PM 48.2 °F - 35.6 °F 62% 30.18 in 10.0 mi Calm Calm - N/A   Clear
7:51 PM 48.2 °F - 35.6 °F 62% 30.18 in 10.0 mi SE 4.6 mph - N/A   Clear
8:11 PM 48.2 °F - 37.4 °F 66% 30.18 in 10.0 mi SSE 4.6 mph - N/A   Clear
8:31 PM 46.4 °F 43.5 °F 37.4 °F 71% 30.18 in 10.0 mi SSE 5.8 mph - N/A   Clear
8:51 PM 48.2 °F - 37.4 °F 66% 30.18 in 10.0 mi SSE 4.6 mph - N/A   Clear
9:11 PM 48.2 °F - 37.4 °F 66% 30.18 in 10.0 mi SSE 4.6 mph - N/A   Clear
9:32 PM 48.2 °F - 37.4 °F 66% 30.17 in 10.0 mi SSE 4.6 mph - N/A   Clear
9:52 PM 48.2 °F - 37.4 °F 66% 30.17 in 10.0 mi SSE 4.6 mph - N/A   Clear
10:12 PM 46.4 °F 45.2 °F 37.4 °F 71% 30.18 in 10.0 mi SSE 3.5 mph - N/A   Clear
10:32 PM 46.4 °F 45.2 °F 37.4 °F 71% 30.18 in 10.0 mi South 3.5 mph - N/A   Clear
10:52 PM 46.4 °F 44.3 °F 37.4 °F 71% 30.18 in 10.0 mi South 4.6 mph - N/A   Clear
11:32 PM 46.4 °F 45.2 °F 37.4 °F 71% 30.17 in 10.0 mi South 3.5 mph - N/A   Clear
11:53 PM 46.4 °F 44.3 °F 37.4 °F 71% 30.17 in 10.0 mi South 4.6 mph - N/A   Clear